Waarnemingen

Advertentie
Mijn weer
Mont-De-Marsan, Frankrijk (7607): temperatuur & dauwpunt: 15.01.2017 18:00:00 - 21.01.2017 18:00:00 (CET)Mont-De-Marsan, Frankrijk (7607): temperatuur 5cm: 15.01.2017 18:00:00 - 21.01.2017 18:00:00 (CET)Mont-De-Marsan, Frankrijk (7607): temperatuur -20cm & temperatuur -100cm: 15.01.2017 18:00:00 - 21.01.2017 18:00:00 (CET)Mont-De-Marsan, Frankrijk (7607): windsnelheid & windstoten: 15.01.2017 18:00:00 - 21.01.2017 18:00:00 (CET)Mont-De-Marsan, Frankrijk (7607): windrichting: 15.01.2017 18:00:00 - 21.01.2017 18:00:00 (CET)Mont-De-Marsan, Frankrijk (7607): luchtdruk: 15.01.2017 18:00:00 - 21.01.2017 18:00:00 (CET)Mont-De-Marsan, Frankrijk (7607): zicht: 15.01.2017 18:00:00 - 21.01.2017 18:00:00 (CET)Mont-De-Marsan, Frankrijk (7607): Zonneschijnduur: 15.01.2017 18:00:00 - 21.01.2017 18:00:00 (CET)Mont-De-Marsan, Frankrijk (7607): neerslag: 15.01.2017 18:00:00 - 21.01.2017 18:00:00 (CET)
Datum & Tijd tt [°C] td [°C] tt 5cm [°C] tt -20cm [°C] tt -100cm [°C] ff [km/u] ff [kn] fx [km/u] fx [kn] dd ppp [hPa] vv [km] sd [min] rr [mm]
21.01.2017 18:00:00 7,6 1,0 3,2 3,9 8,5 8 4 16 8 ONO 1021,7 55 29 0,0
21.01.2017 17:00:00 10,8 1,9 - - - 9 5 18 10 O 1021,1 60 - 0,0
21.01.2017 16:00:00 10,8 2,1 13,9 3,6 8,5 11 6 22 12 ZO 1021,2 20 60 0,0
21.01.2017 15:00:00 10,4 2,2 13,8 3,5 8,5 12 7 25 14 OZO 1020,9 36 60 0,0
21.01.2017 14:00:00 9,9 2,5 13,6 3,4 8,5 15 8 27 14 O 1021,3 20 60 0,0
21.01.2017 13:00:00 8,2 1,8 9,2 3,4 8,5 13 7 21 11 OZO 1022,4 23 60 0,0
21.01.2017 12:00:00 6,2 0,9 - - - 2 1 16 9 OZO 1023,4 17 - 0,0
21.01.2017 11:00:00 3,5 -0,5 5,8 3,4 8,5 8 5 14 8 O 1023,4 17 60 0,0
21.01.2017 10:00:00 1,0 -0,5 -4,3 3,5 8,6 3 2 9 5 O 1023,5 16 60 0,0
21.01.2017 09:00:00 -2,6 -3,2 -6,7 3,5 8,6 6 3 9 5 ONO 1023,0 12 9 0,0
21.01.2017 08:00:00 -3,5 -4,5 - - - 5 3 8 4 ONO 1023,2 11 - 0,0
21.01.2017 07:00:00 -3,0 -3,8 -6,1 3,6 8,6 6 3 11 6 ONO 1022,9 12 0 0,0
21.01.2017 06:00:00 -3,2 -4,0 -6,7 3,6 8,6 6 4 8 4 NO 1023,1 8 0 0,0
21.01.2017 05:00:00 -1,6 -2,3 -5,8 3,6 8,6 5 3 10 6 ONO 1023,1 11 0 0,0
21.01.2017 04:00:00 -2,9 -3,9 -5,6 3,6 8,6 8 4 10 6 NO 1023,6 9 0 0,0
21.01.2017 03:00:00 -1,9 -3,0 -5,6 3,6 8,6 5 3 7 4 ONO 1023,7 14 0 0,0
21.01.2017 02:00:00 -0,1 -0,8 -5,6 3,6 8,7 5 3 6 3 ONO 1023,6 10 0 0,0
21.01.2017 01:00:00 0,5 -1,1 -4,7 3,7 8,7 5 3 8 4 ONO 1024,0 14 0 0,0
21.01.2017 00:00:00 2,1 0,3 - - - 4 2 11 6 O 1024,1 18 - 0,0
20.01.2017 23:00:00 2,4 -0,7 -1,3 3,6 8,7 5 3 15 8 O 1024,3 10 0 0,0
20.01.2017 22:00:00 3,9 0,2 1,4 3,6 8,7 11 6 17 9 O 1024,4 19 0 0,0
20.01.2017 21:00:00 3,6 -0,6 1,4 3,6 8,7 7 4 8 5 ONO 1024,4 20 0 0,0
20.01.2017 20:00:00 3,0 -1,0 1,0 3,6 8,7 3 2 6 3 O 1024,5 24 0 0,0
20.01.2017 19:00:00 4,3 -1,3 0,9 3,5 8,7 4 2 15 8 ONO 1024,3 29 0 0,0
20.01.2017 18:00:00 6,2 -0,5 5,5 3,4 8,8 11 6 28 15 O 1024,0 30 23 0,0
20.01.2017 17:00:00 6,7 -0,5 6,5 3,4 8,8 18 10 36 20 ONO 1023,7 31 51 0,0
20.01.2017 16:00:00 7,7 -0,8 9,8 3,4 8,8 21 11 38 21 O 1023,7 24 60 0,0
20.01.2017 15:00:00 8,1 -1,2 11,4 3,3 8,8 20 11 34 18 O 1024,0 21 60 0,0
20.01.2017 14:00:00 5,4 -1,3 5,1 3,3 8,8 7 4 17 9 OZO 1024,7 14 50 0,2
20.01.2017 13:00:00 2,0 -2,3 1,3 3,4 8,9 7 4 12 7 ZO 1025,7 8 33 0,0
20.01.2017 12:00:00 -0,7 -4,1 1,0 3,4 8,8 7 4 10 5 OZO 1026,4 9 28 0,0
20.01.2017 11:00:00 -2,0 -4,3 0,6 3,4 8,9 4 2 9 5 O 1027,0 9 60 0,0
20.01.2017 10:00:00 -4,4 -5,9 -7,4 3,5 8,9 0 0 11 6 N 1026,8 8 24 0,0
20.01.2017 09:00:00 -6,8 -8,0 -9,0 3,5 8,9 5 3 10 5 NNO 1026,6 7 0 0,0
20.01.2017 08:00:00 -7,0 -8,2 -9,6 3,6 8,9 4 2 9 5 ONO 1026,6 8 0 0,0
20.01.2017 07:00:00 -6,9 -8,4 -9,5 3,6 8,9 3 1 7 4 O 1026,4 9 0 0,0
20.01.2017 06:00:00 -7,4 -8,8 -9,7 3,7 8,9 6 3 8 4 ONO 1026,3 9 0 0,0
20.01.2017 05:00:00 -6,9 -8,1 -9,6 3,7 8,9 3 2 5 3 NNO 1026,9 7 0 0,0
20.01.2017 04:00:00 -6,4 -7,6 -9,7 3,7 9,0 2 1 4 2 O 1027,3 7 0 0,0
20.01.2017 03:00:00 -5,5 -6,9 -9,8 3,8 9,0 0 0 4 2 N 1027,4 8 0 0,0
20.01.2017 02:00:00 -5,8 -7,2 -9,7 3,9 9,0 2 1 5 3 NNW 1027,3 8 0 0,0
20.01.2017 01:00:00 -5,6 -6,8 -9,1 3,9 9,0 5 3 7 4 ONO 1027,5 11 0 0,0
20.01.2017 00:00:00 -5,0 -6,5 -8,6 3,9 9,0 4 2 8 4 ONO 1027,9 11 0 0,0
19.01.2017 23:00:00 -4,0 -6,0 -8,6 4,0 9,0 5 3 6 4 NNO 1028,4 14 0 0,0
19.01.2017 22:00:00 -4,1 -6,2 -7,4 4,0 9,1 6 3 10 5 NO 1028,3 15 0 0,0
19.01.2017 21:00:00 -3,4 -5,9 -6,7 4,0 9,1 6 4 10 6 ONO 1028,3 17 0 0,0
19.01.2017 20:00:00 -2,5 -5,5 -6,4 4,0 9,1 6 3 10 5 NO 1028,3 20 0 0,0
19.01.2017 19:00:00 -1,9 -5,4 -5,1 4,0 9,1 8 4 14 7 ONO 1027,9 20 0 0,0
19.01.2017 18:00:00 -0,1 -4,9 -2,7 4,0 9,1 8 4 16 9 ONO 1027,5 28 26 0,0
19.01.2017 17:00:00 2,7 -4,1 4,3 3,9 9,1 10 6 19 10 O 1027,3 28 60 0,0
19.01.2017 16:00:00 3,1 -4,1 6,5 3,9 9,1 10 5 16 9 O 1027,1 19 60 0,0
19.01.2017 15:00:00 2,9 -4,3 7,3 3,9 9,1 10 5 21 11 O 1027,2 19 60 0,0
19.01.2017 14:00:00 2,7 -5,2 7,0 3,9 9,1 6 3 16 9 OZO 1027,3 29 60 0,0
19.01.2017 13:00:00 1,7 -5,5 4,5 4,0 9,2 8 4 18 10 ZO 1027,9 27 60 0,0
19.01.2017 12:00:00 0,6 -5,4 3,1 4,0 9,1 5 3 10 5 OZO 1028,4 19 60 0,0
19.01.2017 11:00:00 -2,5 -5,0 -2,2 4,1 9,2 5 3 8 4 O 1028,8 13 60 0,0
19.01.2017 10:00:00 -6,0 -7,5 -9,6 4,1 9,2 4 2 7 4 ONO 1028,5 12 60 0,0
19.01.2017 09:00:00 -9,5 -11,3 -12,1 4,3 9,2 4 2 7 4 ONO 1028,0 14 9 0,0
19.01.2017 08:00:00 -9,0 -10,8 -12,2 4,3 9,2 4 2 5 3 ONO 1027,7 13 0 0,0
19.01.2017 07:00:00 -8,8 -10,3 -12,0 4,4 9,2 2 1 7 4 OZO 1027,8 14 0 0,0
19.01.2017 06:00:00 -8,3 -9,9 -11,7 4,5 9,2 3 2 4 2 ONO 1027,8 13 0 0,0
19.01.2017 05:00:00 -8,2 -9,7 -11,5 4,6 9,3 0 0 4 2 N 1028,2 15 0 0,0
19.01.2017 04:00:00 -7,9 -9,3 -11,2 4,6 9,3 4 2 4 2 O 1028,3 17 0 0,0
19.01.2017 03:00:00 -6,8 -8,2 -11,0 4,7 9,3 0 0 2 1 N 1028,6 13 0 0,0
19.01.2017 02:00:00 -6,3 -8,1 -10,3 4,8 9,3 2 1 15 8 OZO 1028,4 13 0 0,0
19.01.2017 01:00:00 -6,2 -7,9 -10,3 4,8 9,3 0 0 0 0 N 1028,6 10 0 0,0
19.01.2017 00:00:00 -5,2 -6,6 -9,6 4,8 9,3 0 0 0 0 N 1028,9 12 0 0,0
18.01.2017 23:00:00 -5,0 -7,4 -9,0 4,8 9,3 0 0 2 1 N 1028,8 16 0 0,0
18.01.2017 22:00:00 -4,1 -7,5 -7,8 4,9 9,3 0 0 4 2 N 1028,7 15 0 0,0
18.01.2017 21:00:00 -2,0 -7,5 -5,2 4,9 9,3 0 0 3 2 N 1028,7 32 0 0,0
18.01.2017 20:00:00 -0,8 -7,6 -1,5 4,9 9,4 2 1 5 3 WNW 1028,8 32 0 0,0
18.01.2017 19:00:00 -1,0 -6,0 -1,4 4,9 9,4 3 1 5 3 N 1028,6 28 0 0,0
18.01.2017 18:00:00 -0,8 -6,6 -1,2 4,9 9,4 6 3 8 5 W 1028,0 34 0 0,0
18.01.2017 17:00:00 -0,4 -6,8 - - - 5 3 11 6 ZZW 1027,7 45 - 0,0
18.01.2017 16:00:00 -0,4 -6,8 0,3 4,9 9,4 3 2 11 6 Z 1027,6 33 0 0,0
18.01.2017 15:00:00 -0,2 -6,8 0,8 4,9 9,4 4 2 9 5 WZW 1027,3 39 0 0,0
18.01.2017 14:00:00 -0,3 -7,6 1,2 4,9 9,4 3 1 14 8 ZW 1027,0 42 18 0,0
18.01.2017 13:00:00 0,3 -6,8 - - - 2 1 9 5 Z 1027,4 19 - -
18.01.2017 12:00:00 -0,4 -6,4 3,5 5,1 9,5 3 2 9 5 ZZO 1028,1 29 60 0,0
18.01.2017 11:00:00 -2,3 -6,5 -0,1 5,1 9,4 8 4 12 6 NO 1028,6 19 60 0,0
18.01.2017 10:00:00 -4,4 -7,0 -7,3 5,2 9,4 3 2 8 5 NW 1028,6 24 57 0,0
18.01.2017 09:00:00 -6,1 -8,2 -8,7 5,3 9,4 5 3 8 4 W 1028,2 20 0 0,0
18.01.2017 08:00:00 -5,3 -7,9 -6,6 5,4 9,4 5 3 9 5 - 1027,8 10 0 0,0
18.01.2017 07:00:00 -4,4 -7,3 -5,1 5,5 9,5 4 2 10 5 N 1027,5 29 0 0,0
18.01.2017 06:00:00 -4,6 -6,9 -5,2 5,6 9,5 4 2 8 5 NW 1027,6 20 0 0,0
18.01.2017 05:00:00 -4,4 -7,2 -7,2 5,7 9,5 5 3 8 5 NNW 1027,7 30 0 0,0
18.01.2017 04:00:00 -4,5 -7,4 -7,6 5,8 9,5 5 3 9 5 NNW 1028,1 31 0 0,0
18.01.2017 03:00:00 -4,2 -7,0 -7,7 5,9 9,5 6 3 10 5 NNW 1028,2 20 0 0,0
18.01.2017 02:00:00 -3,4 -6,9 -6,8 6,0 9,5 4 2 12 7 N 1028,1 31 0 0,0
18.01.2017 01:00:00 -3,0 -6,6 -4,9 6,1 9,4 9 5 14 8 NNW 1028,2 33 0 0,0
18.01.2017 00:00:00 -2,3 -6,7 -4,3 6,2 9,5 8 5 16 9 N 1028,4 41 0 0,0
17.01.2017 23:00:00 -2,0 -6,9 -4,5 6,3 9,5 8 4 17 9 N 1028,5 53 0 0,0
17.01.2017 22:00:00 -1,1 -6,7 -5,3 6,4 9,5 13 7 21 11 N 1028,5 59 0 0,0
17.01.2017 21:00:00 -0,8 -7,0 -4,3 6,4 9,5 3 2 18 10 ZZW 1028,4 60 0 0,0
17.01.2017 20:00:00 -0,9 -6,9 -4,9 6,5 9,5 9 5 17 9 N 1028,4 60 0 0,0
17.01.2017 19:00:00 0,5 -6,6 -1,3 6,5 9,5 13 7 27 15 N 1027,9 60 0 0,0
17.01.2017 18:00:00 1,9 -7,2 0,5 6,5 9,5 16 9 31 17 N 1027,7 60 24 0,0
17.01.2017 17:00:00 4,0 -6,6 - - - 18 10 37 20 N 1027,3 60 - 0,0
17.01.2017 16:00:00 4,9 -6,1 7,5 6,4 9,5 19 11 38 21 N 1027,2 60 60 0,0
17.01.2017 15:00:00 4,7 -6,0 8,0 6,4 9,5 26 14 42 23 N 1027,2 10 60 0,0
17.01.2017 14:00:00 4,0 -5,2 7,9 6,5 9,5 20 11 29 15 N 1027,9 20 60 0,0
17.01.2017 13:00:00 2,9 -3,7 7,7 6,6 9,5 13 7 22 12 NNW 1029,1 57 60 0,0
17.01.2017 12:00:00 2,0 -3,3 5,7 6,7 9,5 11 6 22 12 N 1029,4 39 60 0,0
17.01.2017 11:00:00 0,6 -3,3 - - - 13 7 24 13 N 1029,4 35 - 0,0
17.01.2017 10:00:00 -0,8 -2,5 -5,8 7,0 9,4 12 7 22 12 N 1029,4 17 60 0,0
17.01.2017 09:00:00 -4,1 -4,9 -8,8 7,1 9,5 4 2 6 3 NNW 1028,8 14 8 0,0
17.01.2017 08:00:00 -3,6 -4,3 -8,6 7,3 9,5 2 1 7 4 NW 1028,4 18 0 0,0
17.01.2017 07:00:00 -3,2 -3,9 -8,1 7,4 9,5 4 2 5 3 W 1028,0 11 0 0,0
17.01.2017 06:00:00 -2,9 -4,0 -7,6 7,6 9,5 4 2 10 5 NNW 1027,6 10 0 0,0
17.01.2017 05:00:00 -1,9 -3,3 -5,5 7,7 9,5 2 1 11 6 NO 1027,6 48 0 0,0
17.01.2017 04:00:00 -1,3 -3,0 -3,7 7,9 9,5 8 4 19 10 NNO 1027,5 10 0 0,0
17.01.2017 03:00:00 -0,7 -2,4 - - - 9 5 13 7 NNO 1027,4 60 - 0,0
17.01.2017 02:00:00 0,7 -1,5 -1,6 8,0 9,5 8 5 18 10 NNO 1027,1 60 0 0,0
17.01.2017 01:00:00 1,9 -0,7 -0,8 8,1 9,4 6 4 15 8 NO 1026,8 60 0 0,0
17.01.2017 00:00:00 4,3 0,4 - - - 11 6 21 11 NO 1026,4 60 - 0,0
16.01.2017 23:00:00 4,9 1,2 4,5 8,1 9,5 10 6 16 9 NNO 1026,0 60 0 0,0
16.01.2017 22:00:00 5,4 1,9 5,1 8,2 9,5 8 5 14 7 NNO 1025,7 60 0 0,0
16.01.2017 21:00:00 5,8 2,3 5,4 8,2 9,4 6 4 23 12 NNO 1025,7 60 0 0,0
16.01.2017 20:00:00 6,4 2,3 5,9 8,2 9,4 13 7 22 12 NNO 1025,3 60 0 0,0
16.01.2017 19:00:00 7,2 3,6 6,4 8,2 9,5 9 5 18 10 N 1024,9 60 0 0,0
16.01.2017 18:00:00 7,4 4,4 6,6 8,1 9,5 9 5 27 14 NNO 1024,7 60 0 0,0
16.01.2017 17:00:00 8,7 4,9 8,8 8,1 9,5 17 9 28 15 N 1024,3 60 7 0,0
16.01.2017 16:00:00 10,6 6,0 10,0 8,0 9,5 14 8 26 14 NNW 1023,7 60 6 0,0
16.01.2017 15:00:00 10,1 6,4 - - - 11 6 34 18 NNW 1023,8 60 - 0,0
16.01.2017 14:00:00 10,5 7,0 10,5 7,8 9,5 23 13 35 19 NW 1024,1 60 0 0,0
16.01.2017 13:00:00 10,1 7,3 9,0 7,7 9,5 18 10 29 16 NNW 1024,4 60 0 0,2
16.01.2017 12:00:00 10,0 7,6 9,2 7,7 9,5 11 6 30 16 NW 1025,0 10 4 0,0
16.01.2017 11:00:00 9,1 7,5 8,7 7,7 9,5 15 8 23 13 NW 1025,2 10 0 0,0
16.01.2017 10:00:00 8,9 7,8 8,4 7,6 9,5 14 8 19 11 WNW 1024,9 45 0 0,0
16.01.2017 09:00:00 8,6 7,7 8,1 7,6 9,5 10 5 17 9 WNW 1024,4 20 0 0,0
16.01.2017 08:00:00 8,8 7,9 8,5 7,5 9,5 11 6 22 12 NW 1024,0 20 0 0,2
16.01.2017 07:00:00 8,9 8,0 8,6 7,5 9,5 14 8 22 12 NW 1023,5 7 0 0,2
16.01.2017 06:00:00 8,9 8,1 8,6 7,4 9,5 11 6 22 12 NNW 1023,1 6 0 0,4
16.01.2017 05:00:00 9,0 8,1 - - - 13 7 28 15 NW 1023,3 3,7 - 0,4
16.01.2017 04:00:00 9,2 8,0 8,5 7,4 9,5 16 9 32 17 NW 1023,4 52 0 0,0
16.01.2017 03:00:00 9,0 8,1 7,5 7,4 9,5 14 8 32 17 NW 1023,8 7 0 1,0
16.01.2017 02:00:00 7,6 7,2 7,0 7,3 9,5 10 5 22 12 WNW 1023,9 6 0 0,2
16.01.2017 01:00:00 7,1 6,7 6,7 7,3 9,5 11 6 17 9 W 1024,6 4,9 0 1,0
16.01.2017 00:00:00 6,8 6,4 6,6 7,3 9,5 10 5 21 11 W 1025,3 4,6 0 0,8
15.01.2017 23:00:00 6,6 6,2 6,2 7,3 9,5 10 5 19 10 W 1025,9 6 0 0,9
15.01.2017 22:00:00 6,3 5,7 6,1 7,3 9,5 11 6 16 9 WZW 1026,5 4,2 0 2,0
15.01.2017 21:00:00 6,3 5,7 5,9 7,3 9,5 10 5 17 9 W 1026,8 6 0 0,4
15.01.2017 20:00:00 6,2 5,6 6,0 7,2 9,5 12 7 18 10 W 1027,5 15 0 0,4
15.01.2017 19:00:00 6,3 5,6 6,0 7,2 9,5 13 7 17 9 W 1027,7 13 0 0,6
15.01.2017 18:00:00 6,7 6,1 6,5 7,1 9,5 12 7 18 10 W 1027,6 8 0 0,8

tt = temperatuur
td = dauwpunt
tt 5cm = temperatuur 5cm
tt -20cm = temperatuur -20cm
tt -100cm = temperatuur -100cm
ff = windsnelheid
fx = windstoten
dd = windrichting
ppp = luchtdruk
vv = zicht
sd = Zonneschijnduur
rr = neerslag

Weerstations in de omgeving